Simultaneous Nadir Overpasses (SNOs) Predictions

Prediction of SNOs between METOP-A and NPP Satellite Orbit:

Table of predicted SNOs for the next 14.0 days since TLE Epoch: 4/6/2018
Index Date (METOP-A) Time (METOP-A) Lat,Lon (METOP-A) SZA (METOP-A ) Date (NPP) Time (NPP) Lat,Lon (NPP) SZA (NPP ) Distance(km) Time Diff (sec)
1 04/20/2018 07:57:03 73.82, 52.84 62.35 04/20/2018 07:55:55 73.81, 50.49 62.47 72.78 68
2 04/20/2018 08:47:47 -73.74,-140.03 117.74 04/20/2018 08:46:37 -73.69,-141.90 117.69 58.78 70
3 04/20/2018 09:38:31 73.49, 26.75 62.03 04/20/2018 09:37:19 73.52, 25.81 62.12 29.80 72
4 04/20/2018 10:29:15 -73.41,-166.11 118.06 04/20/2018 10:28:01 -73.40,-166.60 118.03 15.69 74
5 04/20/2018 11:19:57 73.26, 0.90 61.80 04/20/2018 11:18:44 73.27, 0.99 61.82 2.97 73




NCC Satellite Simultaneous Nadir Overpasses (SNOs) Prediction Service
